This is the latest recevied weather packets stored in our database for station/object KB3GVC-13. If no packets are shown the sender has not sent any weather packets the latest 1 day(s).
| Time | Temp. | Humidity | Pressure | Rain* | Wind** | Luminosity | Snow |
|---|---|---|---|---|---|---|---|
| 1778070598 | 19.44° C | 72% | 1011.3 hPa | 0 mm | - | - | - |
| 1778070294 | 19.44° C | 72% | 1011.4 hPa | 0 mm | - | - | - |
| 1778069993 | 19.44° C | 72% | 1011.3 hPa | 0 mm | - | - | - |
| 1778069386 | 19.44° C | 73% | 1011.1 hPa | 0 mm | - | - | - |
| 1778068781 | 18.89° C | 74% | 1011.2 hPa | 0 mm | - | - | - |
| 1778068479 | 18.89° C | 74% | 1011.1 hPa | 0 mm | - | - | - |
| 1778068177 | 18.89° C | 74% | 1010.9 hPa | 0 mm | - | - | - |
| 1778067874 | 18.89° C | 74% | 1010.9 hPa | 0 mm | - | - | - |
| 1778067270 | 18.89° C | 75% | 1011.1 hPa | 0 mm | - | - | - |
| 1778066966 | 18.89° C | 75% | 1010.7 hPa | 0 mm | - | - | - |
| 1778066361 | 18.89° C | 74% | 1010.8 hPa | 0 mm | - | - | - |
| 1778066060 | 18.89° C | 75% | 1010.8 hPa | 0 mm | - | - | - |
| 1778065151 | 18.33° C | 75% | 1010.8 hPa | 0 mm | - | - | - |
| 1778064847 | 18.33° C | 76% | 1010.7 hPa | 0 mm | - | - | - |
| 1778063940 | 18.33° C | 76% | 1010.6 hPa | 0 mm | - | - | - |
| 1778062729 | 18.33° C | 77% | 1011 hPa | 0 mm | - | - | - |
| 1778061519 | 18.33° C | 77% | 1010.7 hPa | 0 mm | - | - | - |
| 1778060913 | 17.78° C | 77% | 1010.6 hPa | 0 mm | - | - | - |
| 1778060612 | 17.78° C | 78% | 1010.6 hPa | 0 mm | - | - | - |
| 1778060309 | 17.78° C | 78% | 1011 hPa | 0 mm | - | - | - |
| 1778060006 | 18.33° C | 77% | 1011 hPa | 0 mm | - | - | - |
| 1778059704 | 18.33° C | 77% | 1010.9 hPa | 0 mm | - | - | - |
| 1778059098 | 18.33° C | 77% | 1010.9 hPa | 0 mm | - | - | - |
| 1778057887 | 18.33° C | 76% | 1010.9 hPa | 0 mm | - | - | - |
| 1778057583 | 18.89° C | 75% | 1010.8 hPa | 0 mm | - | - | - |
* Rain latest hour (hover to see other rain measurements)
** Current wind speed in m/s (hover to see current wind gust speed)